Marion-Critt Cnty AP, Marion,, KY

11:47 AM CDT on August 20, 2017 (GMT -0500)
Marion-Critt Cnty AP, Marion,

Weather History for K5M9 - April, 2014

Change the Weather History Date:

Tuesday, April 1, 2014

  Actual Average (KEHR) Record (KEHR)
Temperature  
Mean Temperature 62 °F -  
Max Temperature 74 °F 64 °F 87 °F (2012)
Min Temperature 52 °F 42 °F 26 °F (1954)
Degree Days  
Heating Degree Days 2    
Growing Degree Days 12 (Base 50)    
Moisture  
Dew Point 43 °F    
Average Humidity 51    
Maximum Humidity 71    
Minimum Humidity 32    
Precipitation  
Precipitation 0.00 in - - ()
Sea Level Pressure  
Sea Level Pressure 30.01 in    
Wind  
Wind Speed 9 mph (WSW)    
Max Wind Speed 18 mph    
Max Gust Speed 25 mph    
Visibility 10 miles    
Events Rain    
Averages and records for this station are not official NWS values.
T = Trace of Precipitation, MM = Missing Value Source: NWS Daily Summary

Daily Weather History Graph

Daily Weather History Graph

Search for Another Location

Airport or City:

Trip Planner

Search our weather history database for the weather conditions in past years. The results will help you decide how hot, cold, wet, or windy it might be!

Date:

Astronomy

Apr. 01, 2014 Rise Set
Actual Time 6:37 AM CDT 7:15 PM CDT
Civil Twilight 6:11 AM CDT 7:41 PM CDT
Nautical Twilight 5:40 AM CDT 8:12 PM CDT
Astronomical Twilight 5:09 AM CDT 8:44 PM CDT
Moon 7:43 AM CDT (4/1) 9:34 PM CDT (4/1)
Length of Visible Light 13h 29m
Length of Day
12h 37m
Waxing Crescent, 5% of the Moon is Illuminated
Apr 1
Waxing Crescent
Apr 7
First Quarter
Apr 15
Full
Apr 22
Last Quarter
Apr 29
New

Hourly Weather History & Observations

Time (CDT) Temp. Dew Point Humidity Pressure Visibility Wind Dir Wind Speed Gust Speed Precip Events Conditions
12:15 AM 63.7 °F 36.9 °F 37% 29.95 in 10.0 mi SW 11.5 mph - N/A   Overcast
12:35 AM 63.1 °F 37.4 °F 39% 29.95 in 10.0 mi SW 11.5 mph - N/A   Mostly Cloudy
12:55 AM 62.6 °F 37.6 °F 40% 29.95 in 10.0 mi SW 12.7 mph 20.7 mph N/A   Mostly Cloudy
1:15 AM 63.1 °F 38.3 °F 40% 29.96 in 10.0 mi SW 12.7 mph 21.9 mph N/A   Overcast
1:35 AM 62.1 °F 39.2 °F 43% 29.96 in 10.0 mi SW 11.5 mph - N/A   Overcast
1:55 AM 60.6 °F 42.8 °F 52% 29.96 in 10.0 mi SW 11.5 mph 18.4 mph N/A Rain Rain
2:15 AM 60.3 °F 43.0 °F 53% 29.96 in 10.0 mi WSW 12.7 mph - N/A   Overcast
2:35 AM 62.1 °F 42.1 °F 48% 29.96 in 10.0 mi WSW 13.8 mph 20.7 mph N/A   Overcast
2:55 AM 61.9 °F 42.3 °F 49% 29.97 in 10.0 mi WSW 18.4 mph 25.3 mph N/A   Scattered Clouds
3:15 AM 61.9 °F 42.8 °F 50% 29.96 in 10.0 mi WSW 12.7 mph 19.6 mph N/A   Scattered Clouds
3:35 AM 61.2 °F 43.0 °F 51% 29.96 in 10.0 mi WSW 10.4 mph - N/A   Clear
3:55 AM 60.4 °F 43.2 °F 53% 29.96 in 10.0 mi WSW 9.2 mph - N/A   Clear
4:15 AM 59.7 °F 43.3 °F 55% 29.96 in 10.0 mi WSW 10.4 mph - N/A   Clear
4:35 AM 58.6 °F 43.7 °F 58% 29.97 in 10.0 mi SW 8.1 mph - N/A   Clear
4:55 AM 58.1 °F 43.7 °F 59% 29.97 in 10.0 mi SW 6.9 mph - N/A   Clear
5:15 AM 56.5 °F 43.7 °F 62% 29.97 in 10.0 mi SSW 4.6 mph - N/A   Clear
5:35 AM 56.1 °F 43.7 °F 63% 29.98 in 10.0 mi SW 5.8 mph - N/A   Clear
5:55 AM 55.6 °F 43.7 °F 64% 29.99 in 10.0 mi SW 5.8 mph - N/A   Clear
6:15 AM 55.0 °F 43.3 °F 65% 29.99 in 10.0 mi SW 3.5 mph - N/A   Clear
6:35 AM 52.2 °F 43.2 °F 71% 30.00 in 10.0 mi SSW 5.8 mph - N/A   Clear
6:55 AM 52.7 °F 43.3 °F 70% 30.00 in 10.0 mi SW 6.9 mph - N/A   Clear
7:15 AM 53.8 °F 43.9 °F 69% 30.02 in 10.0 mi SW 6.9 mph - N/A   Clear
7:35 AM 56.1 °F 44.8 °F 66% 30.03 in 10.0 mi SW 8.1 mph - N/A   Clear
7:55 AM 58.1 °F 45.1 °F 62% 30.03 in 10.0 mi SW 10.4 mph 17.3 mph N/A   Clear
8:15 AM 59.0 °F 45.9 °F 62% 30.03 in 10.0 mi WSW 6.9 mph - N/A   Clear
8:35 AM 60.4 °F 46.9 °F 61% 30.04 in 10.0 mi WSW 6.9 mph - N/A   Clear
8:55 AM 61.5 °F 47.3 °F 60% 30.04 in 10.0 mi WSW 6.9 mph - N/A   Clear
9:15 AM 62.8 °F 47.1 °F 57% 30.04 in 10.0 mi SW 6.9 mph - N/A   Clear
9:35 AM 63.9 °F 46.2 °F 53% 30.05 in 10.0 mi WSW 9.2 mph - N/A   Clear
9:55 AM 65.3 °F 45.9 °F 49% 30.06 in 10.0 mi SW 10.4 mph - N/A   Clear
10:15 AM 66.2 °F 45.3 °F 47% 30.06 in 10.0 mi SW 6.9 mph - N/A   Clear
10:35 AM 67.5 °F 45.1 °F 45% 30.06 in 10.0 mi West 9.2 mph - N/A   Clear
10:55 AM 67.6 °F 43.2 °F 41% 30.06 in 10.0 mi West 9.2 mph - N/A   Clear
11:15 AM 68.9 °F 41.7 °F 37% 30.06 in 10.0 mi WNW 8.1 mph - N/A   Clear
11:35 AM 70.7 °F 40.5 °F 33% 30.05 in 10.0 mi West 9.2 mph - N/A   Clear
11:55 AM 70.9 °F 41.4 °F 34% 30.05 in 10.0 mi WSW 10.4 mph 16.1 mph N/A   Clear
12:15 PM 72.7 °F 41.5 °F 32% 30.05 in 10.0 mi WSW 8.1 mph 17.3 mph N/A   Clear
12:35 PM 73.2 °F 43.5 °F 34% 30.05 in 10.0 mi WSW 11.5 mph - N/A   Clear
12:55 PM 73.0 °F 44.1 °F 35% 30.05 in 10.0 mi WSW 10.4 mph - N/A   Clear
1:15 PM 73.9 °F 45.0 °F 35% 30.04 in 10.0 mi SW 8.1 mph - N/A   Scattered Clouds
1:35 PM 72.1 °F 44.1 °F 36% 30.03 in 10.0 mi SSW 6.9 mph - N/A   Mostly Cloudy
1:55 PM 73.6 °F 46.6 °F 38% 30.03 in 10.0 mi SSW 6.9 mph - N/A   Overcast
2:15 PM 73.4 °F 46.2 °F 38% 30.03 in 10.0 mi SW 9.2 mph - N/A   Overcast
2:35 PM 72.7 °F 44.8 °F 37% 30.03 in 10.0 mi SSW 6.9 mph - N/A   Overcast
2:55 PM 72.9 °F 45.1 °F 37% 30.01 in 10.0 mi SW 6.9 mph - N/A   Overcast
3:15 PM 72.7 °F 46.0 °F 39% 30.01 in 10.0 mi WSW 10.4 mph - N/A   Overcast
3:35 PM 73.0 °F 45.9 °F 38% 30.00 in 10.0 mi West 8.1 mph - N/A   Mostly Cloudy
3:55 PM 72.5 °F 46.9 °F 40% 30.00 in 10.0 mi West 8.1 mph - N/A   Overcast
4:15 PM 72.7 °F 47.1 °F 40% 29.99 in 10.0 mi WSW 8.1 mph - N/A   Overcast
4:35 PM 73.0 °F 46.8 °F 39% 29.99 in 10.0 mi West 8.1 mph - N/A   Overcast
4:55 PM 73.0 °F 46.4 °F 39% 30.00 in 10.0 mi West 8.1 mph - N/A   Overcast
5:15 PM 72.0 °F 46.0 °F 40% 30.00 in 10.0 mi NNW 8.1 mph - N/A   Overcast
5:35 PM 68.0 °F 39.9 °F 36% 30.01 in 10.0 mi North 11.5 mph 16.1 mph N/A   Overcast
5:55 PM 64.9 °F 39.0 °F 39% 30.02 in 10.0 mi North 8.1 mph 19.6 mph N/A   Overcast
6:15 PM 63.0 °F 40.3 °F 43% 30.02 in 10.0 mi North 13.8 mph - N/A   Scattered Clouds
6:35 PM 61.0 °F 40.1 °F 46% 30.01 in 10.0 mi NNE 10.4 mph - N/A   Clear
6:55 PM 59.7 °F 41.0 °F 50% 30.01 in 10.0 mi NE 5.8 mph - N/A   Clear
7:15 PM 58.3 °F 41.0 °F 53% 30.01 in 10.0 mi NE 5.8 mph - N/A   Clear
7:35 PM 57.6 °F 40.5 °F 53% 30.01 in 10.0 mi NNE 8.1 mph - N/A   Clear
7:55 PM 56.8 °F 41.0 °F 55% 30.02 in 10.0 mi North 4.6 mph - N/A   Clear
8:15 PM 55.4 °F 41.7 °F 60% 30.03 in 10.0 mi North 6.9 mph - N/A   Clear
8:35 PM 54.9 °F 42.4 °F 63% 30.03 in 10.0 mi NE 5.8 mph - N/A   Clear
8:55 PM 54.7 °F 43.0 °F 65% 30.04 in 10.0 mi NE 4.6 mph - N/A   Mostly Cloudy
9:15 PM 54.1 °F 43.3 °F 67% 30.03 in 10.0 mi ENE 5.8 mph - N/A   Overcast
9:35 PM 54.0 °F 42.8 °F 66% 30.03 in 10.0 mi East 5.8 mph - N/A   Scattered Clouds
9:55 PM 52.2 °F 43.0 °F 71% 30.03 in 10.0 mi ENE 6.9 mph - N/A   Clear
10:15 PM 52.9 °F 42.4 °F 68% 30.02 in 10.0 mi East 5.8 mph - N/A   Clear
10:35 PM 52.0 °F 42.4 °F 70% 30.02 in 10.0 mi ENE 4.6 mph - N/A   Clear
10:55 PM 52.7 °F 41.9 °F 67% 30.02 in 10.0 mi East 4.6 mph - N/A   Clear
11:15 PM 52.9 °F 41.9 °F 66% 30.02 in 10.0 mi East 6.9 mph - N/A   Clear
11:35 PM 52.3 °F 41.5 °F 67% 30.03 in 10.0 mi East 4.6 mph - N/A   Clear
11:55 PM 52.2 °F 42.3 °F 69% 30.04 in 10.0 mi NW 3.5 mph - N/A   Mostly Cloudy